Location: Perth
(31.9527°S, 115.8605°E)
Time: 02:53:35
(UTC+08:00)

ISS - Visible Passes

Search period start: 07 December 2021 00:00
Search period end: 17 December 2021 00:00
Orbit: 417 x 422 km, 51.6° (Epoch: 06 December)

Date Brightness Start Highest point End Pass type
(mag) Time Alt. Az. Time Alt. Az. Time Alt. Az.
11 Dec -1.1 21:43:47 15° SSE 21:43:47 15° SSE 21:44:30 10° SSE visible
12 Dec -0.8 04:11:16 10° SSW 04:13:58 21° SE 04:16:40 10° E visible
12 Dec -3.8 20:50:22 10° NW 20:53:45 85° SW 20:57:10 10° SE visible
12 Dec -0.1 22:30:19 10° SW 22:31:01 10° SSW 22:31:43 10° SSW visible
13 Dec -0.3 03:24:29 10° S 03:26:21 14° SSE 03:28:13 10° ESE visible
13 Dec -3.5 20:03:05 10° NNW 20:06:21 46° NE 20:09:39 10° ESE visible
13 Dec -0.5 21:41:09 10° WSW 21:43:20 16° SSW 21:45:32 10° S visible
14 Dec -3.4 04:12:36 10° SW 04:16:00 69° SE 04:19:22 10° NE visible
14 Dec -1.2 20:52:51 10° W 20:55:43 25° SW 20:58:37 10° SSE visible
15 Dec -2.0 03:25:19 10° SSW 03:28:30 36° SE 03:31:40 10° ENE visible
15 Dec -2.3 20:04:55 10° WNW 20:08:11 43° SW 20:11:28 10° SSE visible
16 Dec -1.1 02:38:12 10° SSW 02:40:56 22° SE 02:43:38 10° E visible
16 Dec -2.9 04:14:45 10° WSW 04:17:44 28° NW 04:20:41 10° N visible
16 Dec 0.0 20:57:17 10° SW 20:57:57 10° SSW 20:58:37 10° SSW visible
